Погода в Севане

Армения     40°32′55″N   44°57′26″E
темп.,
°C
ветер,
м/с
пор.,
м/с
влажн.,
%
обл.,
%
осадки,
мм/ч
давл.,
гПа
погр.,
м
21 апреля, ср
ср2101:00+9ююв227483 0.0 101721
04:00+8ююз1171100 0.0 101714
07:00+9ю227138 0.0 101725
10:00+16юз5114353 0.0 10141860
13:00+18юз8143475 0.0 10132377
16:00+12юз246875 2.5 1015214
19:00+12ююз246597 2.4 1015103
22:00+9ююв228051 3.1 101725
22 апреля, чт
чт2201:00+9ю2275100 0.4 101727
04:00+8ю2274100 0.6 101722
07:00+8ююв227441 0.1 101724
10:00+16юз410445 0.2 10152355
13:00+18юз6113813 0.0 10142557
16:00+18зюз7133450 0.0 10122374
19:00+11в2275100 0.0 101478
22:00+9всв117781 0.0 101618
23 апреля, пт
пт2301:00+8зюз117510 0.0 101525
04:00+6зюз12723 0.1 101633
07:00+6сз11719 0.0 101870
10:00+11зсз48410 0.0 10161668
13:00+14зюз711310 0.0 10161993
16:00+14зюз710301 0.0 10151998
19:00+11сз23495 0.0 101683
22:00+5всв12922 0.0 102030
24 апреля, сб
сб2401:00+4всв229115 0.0 102039
04:00+4всв228911 0.0 101925
07:00+4св11805 0.0 102034
10:00+10с2353100 0.0 1018777
13:00+15з373211 0.0 10151687
16:00+15з48321 0.0 10141777
19:00+10ссв44725 0.0 1018272
22:00+6ссв22914 0.0 102134
25 апреля, вс
вс2501:00+5всв11845 0.0 102123
04:00+5в117811 0.0 102018
07:00+7ююв127298 0.0 101931
10:00+14юз034461 0.0 1016931
13:00+18юз57285 0.0 10141969
16:00+18зюз610285 0.0 10131994
19:00+14зюз33465 0.0 101348
22:00+11ююз23463 0.0 101445